Crane Lake, MN

2:26 AM CDT on August 25, 2016 (GMT -0500)
Crane Lake

Weather History for KCDD - March, 2013

Change the Weather History Date:

Thursday, March 7, 2013

  Actual Average Record
Temperature  
Mean Temperature 14 °F -  
Max Temperature 37 °F 25 °F 51 °F (2016)
Min Temperature -9 °F 3 °F -25 °F (2008)
Degree Days  
Heating Degree Days 51    
Moisture  
Dew Point 3 °F    
Average Humidity 66    
Maximum Humidity 85    
Minimum Humidity 33    
Precipitation  
Precipitation 0.00 in - - ()
Sea Level Pressure  
Sea Level Pressure 30.35 in    
Wind  
Wind Speed 1 mph (SSE)    
Max Wind Speed 8 mph    
Max Gust Speed -    
Visibility 10 miles    
Events      
Averages and records for this station are not official NWS values.
T = Trace of Precipitation, MM = Missing Value Source: NWS Daily Summary

Daily Weather History Graph

Daily Weather History Graph

Search for Another Location

Airport or City:

Trip Planner

Search our weather history database for the weather conditions in past years. The results will help you decide how hot, cold, wet, or windy it might be!

Date:

Astronomy

Mar. 07, 2013 Rise Set
Actual Time 6:38 AM CST 6:03 PM CST
Civil Twilight 6:07 AM CST 6:34 PM CST
Nautical Twilight 5:31 AM CST 7:11 PM CST
Astronomical Twilight 4:55 AM CST 7:47 PM CST
Moon 3:56 AM CST (3/7) 1:36 PM CST (3/7)
Length of Visible Light 12h 27m
Length of Day
11h 24m
Waning Crescent, 20% of the Moon is Illuminated
Mar 7
Waning Crescent
Mar 11
New
Mar 19
First Quarter
Mar 27
Full
Apr 2
Last Quarter

Hourly Weather History & Observations

Time (CST) Temp. Windchill Dew Point Humidity Pressure Visibility Wind Dir Wind Speed Gust Speed Precip Events Conditions
12:09 AM 1.4 °F - -2.2 °F 85% 30.35 in 10.0 mi Calm Calm - N/A   Scattered Clouds
12:29 AM -0.4 °F - -5.8 °F 78% 30.35 in 10.0 mi Calm Calm - N/A   Clear
12:49 AM -2.2 °F - -5.8 °F 85% 30.36 in 10.0 mi Calm Calm - N/A   Clear
1:09 AM -2.2 °F - -7.6 °F 78% 30.36 in 10.0 mi Calm Calm - N/A   Scattered Clouds
1:29 AM -2.2 °F - -7.6 °F 78% 30.37 in 10.0 mi Calm Calm - N/A   Mostly Cloudy
1:49 AM -2.2 °F - -7.6 °F 78% 30.37 in 10.0 mi Calm Calm - N/A   Scattered Clouds
2:09 AM -4.0 °F - -7.6 °F 85% 30.37 in 10.0 mi Calm Calm - N/A   Clear
2:29 AM -4.0 °F - -9.4 °F 78% 30.36 in 10.0 mi Calm Calm - N/A   Clear
2:49 AM -5.8 °F - -9.4 °F 84% 30.37 in 10.0 mi Calm Calm - N/A   Clear
3:09 AM -5.8 °F - -9.4 °F 84% 30.37 in 10.0 mi Calm Calm - N/A   Clear
3:29 AM -5.8 °F - -9.4 °F 84% 30.37 in 10.0 mi Calm Calm - N/A   Clear
3:49 AM -5.8 °F - -11.2 °F 77% 30.39 in 10.0 mi Calm Calm - N/A   Clear
4:09 AM -5.8 °F - -11.2 °F 77% 30.39 in 10.0 mi Calm Calm - N/A   Clear
4:49 AM -7.6 °F - -13.0 °F 77% 30.38 in 10.0 mi Calm Calm - N/A   Clear
5:09 AM -7.6 °F - -13.0 °F 77% 30.39 in 10.0 mi Calm Calm - N/A   Clear
5:29 AM -9.4 °F - -13.0 °F 84% 30.39 in 10.0 mi Calm Calm - N/A   Clear
5:49 AM -9.4 °F - -14.8 °F 77% 30.39 in 10.0 mi Calm Calm - N/A   Clear
6:09 AM -9.4 °F - -14.8 °F 77% 30.40 in 10.0 mi Calm Calm - N/A   Clear
6:29 AM -9.4 °F - -14.8 °F 77% 30.39 in 10.0 mi Calm Calm - N/A   Clear
6:49 AM -9.4 °F - -14.8 °F 77% 30.40 in 10.0 mi Calm Calm - N/A   Clear
7:09 AM -9.4 °F - -13.0 °F 84% 30.40 in 10.0 mi Calm Calm - N/A   Clear
7:29 AM -7.6 °F - -11.2 °F 84% 30.40 in 10.0 mi Calm Calm - N/A   Clear
7:49 AM -5.8 °F - -9.4 °F 84% 30.40 in 10.0 mi Calm Calm - N/A   Clear
8:09 AM -2.2 °F - -5.8 °F 85% 30.40 in 10.0 mi Calm Calm - N/A   Clear
8:29 AM 1.4 °F - -2.2 °F 85% 30.40 in 10.0 mi Calm Calm - N/A   Clear
8:49 AM 8.6 °F - 3.2 °F 79% 30.40 in 10.0 mi Calm Calm - N/A   Clear
9:09 AM 12.2 °F - 8.6 °F 85% 30.40 in 10.0 mi Calm Calm - N/A   Clear
9:29 AM 19.4 °F - 14.0 °F 80% 30.39 in 10.0 mi Calm Calm - N/A   Clear
9:49 AM 19.4 °F 14.3 °F 10.4 °F 68% 30.40 in 10.0 mi NW 3.5 mph - N/A   Clear
10:09 AM 21.2 °F 14.9 °F 12.2 °F 68% 30.40 in 10.0 mi NW 4.6 mph - N/A   Clear
10:29 AM 24.8 °F 19.1 °F 14.0 °F 64% 30.39 in 10.0 mi North 4.6 mph - N/A   Clear
10:49 AM 28.4 °F 24.6 °F 15.8 °F 59% 30.38 in 10.0 mi NNE 3.5 mph - N/A   Clear
11:09 AM 30.2 °F 25.4 °F 15.8 °F 55% 30.38 in 10.0 mi NE 4.6 mph - N/A   Clear
11:29 AM 32.0 °F - 14.0 °F 48% 30.38 in 10.0 mi Calm Calm - N/A   Clear
12:09 PM 33.8 °F - 15.8 °F 48% 30.37 in 10.0 mi Calm Calm - N/A   Clear
12:29 PM 35.6 °F - 12.2 °F 38% 30.36 in 10.0 mi Calm Calm - N/A   Clear
12:49 PM 35.6 °F 29.9 °F 10.4 °F 35% 30.35 in 10.0 mi SSW 6.9 mph - N/A   Clear
1:09 PM 35.6 °F 31.7 °F 10.4 °F 35% 30.35 in 10.0 mi SSW 4.6 mph - N/A   Clear
1:29 PM 35.6 °F - 10.4 °F 35% 30.34 in 10.0 mi Calm Calm - N/A   Clear
1:49 PM 37.4 °F - 10.4 °F 33% 30.33 in 10.0 mi Calm Calm - N/A   Clear
2:09 PM 37.4 °F 32.8 °F 10.4 °F 33% 30.32 in 10.0 mi South 5.8 mph - N/A   Clear
2:29 PM 37.4 °F 34.9 °F 10.4 °F 33% 30.32 in 10.0 mi SSE 3.5 mph - N/A   Clear
2:49 PM 37.4 °F 33.8 °F 10.4 °F 33% 30.31 in 10.0 mi South 4.6 mph - N/A   Clear
3:09 PM 37.4 °F 31.4 °F 10.4 °F 33% 30.31 in 10.0 mi SSE 8.1 mph - N/A   Clear
3:29 PM 37.4 °F 34.9 °F 10.4 °F 33% 30.31 in 10.0 mi SE 3.5 mph - N/A   Clear
3:49 PM 37.4 °F 33.8 °F 10.4 °F 33% 30.30 in 10.0 mi South 4.6 mph - N/A   Clear
4:09 PM 37.4 °F 34.9 °F 10.4 °F 33% 30.30 in 10.0 mi South 3.5 mph - N/A   Clear
4:29 PM 35.6 °F 30.7 °F 10.4 °F 35% 30.30 in 10.0 mi South 5.8 mph - N/A   Clear
4:49 PM 35.6 °F 32.8 °F 10.4 °F 35% 30.30 in 10.0 mi SE 3.5 mph - N/A   Clear
5:09 PM 33.8 °F - 10.4 °F 38% 30.30 in 10.0 mi Calm Calm - N/A   Clear
5:29 PM 30.2 °F - 8.6 °F 40% 30.30 in 10.0 mi Calm Calm - N/A   Clear
5:49 PM 24.8 °F - 6.8 °F 46% 30.30 in 10.0 mi Calm Calm - N/A   Clear
8:09 PM 12.2 °F - 6.8 °F 79% 30.30 in 10.0 mi Calm Calm - N/A   Clear
8:29 PM 14.0 °F - 8.6 °F 79% 30.31 in 10.0 mi Calm Calm - N/A   Mostly Cloudy
8:49 PM 17.6 °F - 12.2 °F 79% 30.29 in 10.0 mi Calm Calm - N/A   Overcast
9:09 PM 15.8 °F 10.2 °F 10.4 °F 79% 30.29 in 10.0 mi SE 3.5 mph - N/A   Mostly Cloudy
9:29 PM 17.6 °F - 12.2 °F 79% 30.29 in 10.0 mi Calm Calm - N/A   Scattered Clouds
9:49 PM 17.6 °F - 12.2 °F 79% 30.29 in 10.0 mi Calm Calm - N/A   Clear
10:09 PM 19.4 °F - 12.2 °F 74% 30.29 in 10.0 mi Calm Calm - N/A   Mostly Cloudy
10:29 PM 19.4 °F 12.8 °F 14.0 °F 80% 30.29 in 10.0 mi SSE 4.6 mph - N/A   Mostly Cloudy
10:50 PM 19.4 °F - 14.0 °F 80% 30.29 in 10.0 mi Calm Calm - N/A   Mostly Cloudy
11:09 PM 21.2 °F 14.9 °F 14.0 °F 74% 30.30 in 10.0 mi SSE 4.6 mph - N/A   Mostly Cloudy
11:29 PM 21.2 °F 13.6 °F 14.0 °F 74% 30.30 in 10.0 mi SSE 5.8 mph - N/A   Mostly Cloudy
11:49 PM 21.2 °F 14.9 °F 14.0 °F 74% 30.31 in 10.0 mi SSE 4.6 mph - N/A   Overcast